Wind_Speed
10 8 7 5 5 3 2 2 1 1 1 1 1 1 3 1 2 2 5 4 2 3 2 1 6 5 1 2 3 4 5 4 4 3 2 4 7 14 11 13 17 17 15 15 14 12 11 11 10 8 6 5 7 9 11 13 13 14 13 13 12 12 11 8 8 10 9 10 12 12 12 12 11 12 12 13 13 15 15 15 15 16 15 14 15 16 16 15 15 15 15 15 15 14 13 13 13
8 7 6 3 6 4 1 1 2 1 2 2 2 0 3 3 2 5 6 4 2 4 2 3 6 3 2 2 1 3 4 6 5 3 4 7 13 12 11 15 16 16 16 16 14 11 11 11 10 8 6 6 8 10 11 13 13 14 14 13 12 12 11 7 8 10 9 11 13 11 11 10 10 11 11 13 13 14 15 15 16 15 14 14 15 16 16 15 15 15 15 15 14 14 13 13 13
6 5 4 2 4 2 1 1 2 1 2 2 3 2 3 5 6 4 5 4 5 5 4 5 6 1 2 2 1 0 3 4 3 4 5 11 14 10 12 15 15 15 15 16 13 12 12 11 11 8 6 6 8 10 12 13 14 15 14 12 12 12 11 8 8 10 9 10 12 12 11 11 10 10 10 12 13 14 15 15 15 14 14 15 15 16 16 15 15 16 15 15 15 14 14 13 13
5 4 2 1 0 1 1 1 1 1 1 1 2 5 5 6 5 4 6 6 6 4 4 5 5 1 4 1 1 1 3 4 3 5 7 11 11 12 16 16 15 14 15 15 12 12 11 11 12 9 6 7 9 11 12 14 15 15 14 12 12 12 11 8 9 10 10 10 10 11 11 11 10 10 10 12 14 14 15 15 15 15 14 14 14 15 15 15 15 15 15 15 14 14 14 13 13
3 4 2 1 2 0 0 0 0 2 1 1 1 4 7 5 4 6 6 6 5 2 3 4 2 2 1 2 2 1 4 4 4 6 9 11 9 15 17 15 15 13 14 13 11 10 10 12 12 9 7 7 9 10 11 12 13 15 15 13 12 13 11 9 10 10 10 10 9 10 10 10 10 10 12 14 14 14 14 14 14 14 14 13 14 14 14 15 15 14 14 13 13 13 13 14 14
3 6 7 3 1 0 1 1 1 1 3 2 2 3 5 4 5 8 8 6 3 2 2 1 0 1 2 2 2 2 2 2 6 8 11 11 11 16 18 15 14 13 13 12 12 10 10 12 11 9 7 7 9 9 10 11 13 15 14 12 12 14 12 10 10 10 10 10 9 10 10 10 11 12 14 14 14 14 14 13 14 13 13 14 14 13 13 13 13 13 13 13 12 12 13 13 14
3 2 4 4 2 1 2 1 1 0 3 2 3 3 4 5 6 9 10 6 3 1 1 0 1 2 1 2 2 2 1 2 6 9 12 12 14 16 16 15 13 14 13 12 12 10 12 12 11 9 7 8 9 9 10 10 12 13 14 13 12 13 12 10 10 10 10 9 9 9 9 10 12 13 14 14 13 13 12 12 13 13 13 13 13 13 13 12 12 12 12 12 12 12 12 13 13
2 1 1 0 1 0 1 1 0 1 2 1 2 2 2 4 7 9 10 5 3 2 1 2 0 3 2 1 2 3 1 3 5 9 14 14 15 16 15 15 14 14 13 12 12 11 13 12 11 10 8 8 9 9 10 10 10 12 14 13 11 11 11 10 10 10 9 9 9 8 9 10 11 13 14 14 13 13 11 12 13 13 13 13 12 12 12 12 11 12 12 12 11 11 11 11 12
3 2 1 1 1 1 1 1 1 1 0 0 1 0 1 3 5 7 10 4 2 2 1 4 2 2 3 3 1 3 3 3 5 11 16 15 17 17 15 15 14 14 13 12 12 13 13 12 12 10 8 8 9 9 9 10 10 11 13 12 11 11 11 10 10 10 9 9 9 8 8 9 11 13 13 13 13 11 10 12 12 12 12 12 12 11 11 11 11 11 11 11 10 9 10 10 11
2 2 1 1 1 2 2 1 2 1 1 0 1 1 2 5 5 6 9 5 3 1 2 5 2 2 2 4 2 3 3 4 9 15 16 16 17 16 15 14 13 14 14 12 12 13 13 13 12 10 8 7 8 9 9 9 9 10 11 11 10 10 10 10 9 9 9 8 8 8 7 8 10 11 12 12 12 11 10 11 12 11 11 12 11 10 10 10 10 9 9 10 9 10 10 10 10
1 2 0 1 2 2 2 2 2 2 1 1 0 2 3 6 6 5 6 4 3 0 3 4 2 3 3 2 2 3 3 7 13 16 17 17 17 16 15 14 13 13 13 13 13 13 13 13 13 10 8 7 7 9 9 9 9 10 10 10 10 11 11 10 10 9 9 9 8 8 8 8 10 10 10 11 12 11 10 9 10 11 11 11 11 10 10 10 10 9 9 9 9 10 10 10 9
1 2 1 2 2 0 0 2 3 2 2 1 2 4 3 6 7 7 6 4 3 1 4 5 1 2 4 2 2 4 4 9 14 16 18 17 16 16 15 14 13 12 13 13 13 12 13 13 12 10 9 7 7 8 9 8 9 9 9 9 9 11 11 11 11 10 9 9 7 6 8 8 8 9 8 9 13 11 8 8 10 11 11 10 10 9 10 9 8 8 8 8 9 9 9 9 9
1 2 3 2 0 0 1 1 2 2 2 2 3 4 4 7 6 6 7 4 3 3 2 3 1 1 2 2 2 4 6 11 14 15 18 16 15 16 14 14 13 12 12 13 13 13 13 13 12 10 9 8 7 8 8 8 8 8 8 8 8 9 9 11 12 11 9 9 8 6 7 7 6 8 7 8 13 11 8 6 7 9 10 10 9 9 9 8 8 8 7 8 8 8 8 8 8
1 1 2 1 1 1 1 1 3 3 3 4 4 6 4 4 2 4 6 5 4 2 2 1 1 3 2 3 3 4 8 12 15 15 17 15 15 15 15 14 13 12 12 13 13 13 13 12 12 11 9 8 7 8 8 8 7 7 7 7 7 8 8 10 11 10 9 9 9 7 6 5 5 6 6 7 12 12 9 6 6 8 10 10 9 8 8 6 6 6 7 7 7 7 7 8 7
1 2 0 2 2 2 2 0 2 3 3 6 4 6 6 1 0 3 3 3 2 3 2 2 1 2 1 2 3 5 11 14 15 15 16 15 14 15 14 13 13 12 13 13 13 13 12 13 12 11 9 8 8 7 7 8 8 7 7 7 6 7 7 8 9 9 8 8 8 7 5 4 4 5 5 6 10 13 11 9 7 6 8 10 9 7 6 5 4 5 6 6 6 6 7 7 6
1 2 1 2 2 2 2 1 2 2 3 6 3 3 6 3 1 2 1 1 3 3 1 2 2 2 3 2 3 4 13 16 15 16 16 16 14 14 13 12 12 12 13 13 13 13 13 13 13 11 10 10 9 9 8 8 9 9 8 7 6 6 6 6 7 6 6 6 6 6 4 4 4 4 4 4 8 12 11 9 7 5 6 7 7 7 6 5 4 5 5 5 5 5 5 5 5
1 2 1 2 2 2 4 4 3 2 4 5 4 6 7 5 1 1 1 2 2 4 2 2 2 1 3 3 5 5 13 15 15 16 16 16 15 14 13 12 13 13 14 14 13 13 13 14 13 12 11 11 10 10 9 8 10 9 8 8 7 6 6 5 6 5 5 5 5 4 4 4 4 4 4 3 6 10 11 8 7 6 4 4 5 6 5 5 4 4 4 4 4 4 4 4 3
2 2 2 2 3 2 4 5 3 1 4 7 7 8 7 6 5 2 3 3 2 3 3 3 2 3 2 2 2 7 13 14 16 17 17 17 15 14 14 14 14 14 14 15 14 14 14 14 14 13 12 12 11 11 10 9 10 10 8 8 7 7 6 5 5 5 5 5 5 4 4 5 5 5 4 4 5 8 10 9 7 6 5 5 6 6 5 5 4 3 3 3 3 3 3 3 3
1 1 1 2 3 2 1 3 3 1 3 8 7 5 4 3 5 4 4 4 4 4 4 4 4 5 6 1 2 9 12 15 17 17 18 17 15 16 16 15 15 15 16 16 15 15 15 14 15 14 13 13 13 11 10 10 11 10 8 7 7 7 7 7 6 6 6 6 5 5 5 5 5 5 4 4 5 6 9 10 7 6 5 5 6 6 6 6 5 3 2 1 2 2 3 2 2
1 1 2 3 2 2 1 1 2 1 1 7 8 4 2 1 3 3 3 3 4 7 5 5 7 8 9 6 6 10 13 16 17 17 18 17 16 16 16 16 16 17 17 16 16 16 15 15 15 15 14 14 13 12 11 11 11 10 9 8 7 7 8 9 8 7 7 6 6 6 6 5 4 5 4 3 4 5 8 10 8 5 4 5 6 5 5 6 4 2 2 2 2 2 2 2 2
1 1 1 3 1 2 3 0 1 1 1 5 8 5 5 3 3 3 4 4 5 7 6 6 7 6 9 9 10 14 15 17 18 18 18 18 17 16 16 16 16 16 16 15 16 17 16 16 15 15 16 15 15 13 12 12 11 10 10 9 8 7 7 9 10 9 8 7 7 7 6 5 5 5 5 4 6 6 7 8 8 5 4 4 5 4 4 4 3 3 3 4 3 3 3 2 2
2 1 2 3 0 2 3 1 1 0 1 4 8 7 6 5 3 4 6 6 2 1 2 4 4 1 7 10 12 16 17 18 19 20 20 20 19 18 17 16 15 15 16 15 16 17 18 18 17 16 17 17 15 14 13 13 12 11 11 10 8 8 7 8 10 11 10 9 8 8 7 6 6 7 6 6 7 7 7 8 8 8 7 6 5 5 6 6 5 6 6 5 5 5 4 4 3
2 2 2 2 1 2 2 1 1 1 2 6 6 3 5 6 4 2 6 8 2 5 3 2 2 1 6 11 13 15 17 19 21 22 22 22 22 21 19 17 17 16 16 16 16 16 17 19 19 18 18 18 16 14 12 13 13 11 11 12 10 9 8 8 9 11 12 10 9 9 8 8 8 8 8 8 8 8 8 8 9 9 10 9 8 7 8 8 8 8 8 7 7 6 6 5 5
1 3 4 2 1 2 2 0 2 1 2 3 1 2 4 5 3 3 6 8 3 4 2 3 1 3 7 11 13 15 17 20 21 21 20 20 21 20 19 18 17 17 16 17 16 16 17 18 18 19 19 18 17 15 13 13 13 11 12 13 12 11 9 9 9 10 13 13 11 10 10 10 9 9 9 9 9 9 9 9 10 10 10 10 9 9 9 9 9 9 9 8 7 7 7 7 7
1 4 5 3 2 3 3 1 3 1 1 1 2 3 2 1 1 1 6 4 1 1 2 1 2 6 8 9 12 13 15 17 18 18 18 17 17 18 19 17 17 17 18 18 17 17 17 16 17 18 19 19 18 15 14 14 13 12 13 13 13 13 11 10 9 9 11 14 15 13 12 11 11 11 10 10 10 10 11 10 10 11 10 11 10 10 10 10 10 10 9 9 9 9 9 8 8
2 5 6 5 3 3 2 2 3 2 2 0 4 4 2 2 1 4 4 2 3 2 2 1 4 6 7 8 10 12 13 15 16 17 17 16 16 18 20 20 19 19 19 18 18 17 17 17 17 18 20 20 19 17 16 16 14 14 14 13 13 13 12 10 11 10 9 12 16 16 14 13 12 12 12 11 11 12 12 12 12 12 12 12 11 11 11 10 11 11 11 10 10 10 10 10 9
6 9 8 6 4 3 1 3 3 1 3 2 3 3 2 2 1 4 2 4 4 1 1 1 3 6 7 7 8 10 11 13 15 14 15 16 17 19 21 22 21 20 19 19 19 17 17 18 18 18 20 20 20 19 19 18 16 15 14 14 13 13 12 11 11 11 11 11 15 18 16 15 14 14 14 13 13 13 13 14 13 14 14 13 12 12 12 11 11 12 12 11 11 11 11 11 10
9 10 10 7 4 5 3 3 3 1 3 3 2 3 2 2 3 2 3 3 3 1 2 0 2 4 4 6 7 8 10 11 13 13 16 18 18 19 21 22 21 20 20 20 19 17 18 19 18 18 18 20 21 20 20 20 18 17 16 15 14 14 13 12 11 12 13 13 16 20 18 18 17 16 16 15 14 15 15 15 15 15 15 15 14 14 13 12 12 13 13 13 13 12 12 13 13
7 5 7 6 4 5 4 2 2 2 2 2 2 2 3 5 6 1 3 2 2 1 3 2 3 3 3 5 5 7 8 10 12 15 17 18 17 17 19 20 20 20 20 19 19 18 18 19 19 18 17 20 22 21 20 20 20 18 17 16 15 15 14 13 13 12 13 14 18 21 19 19 20 18 18 17 16 16 17 17 17 16 16 16 15 15 14 13 14 14 14 14 15 15 15 15 15
5 1 2 5 5 3 3 2 2 1 1 2 2 4 3 6 5 1 3 3 2 2 3 2 3 3 3 4 5 6 8 11 14 16 16 16 15 16 17 18 18 19 18 17 19 20 19 18 18 17 18 21 22 22 20 20 20 19 19 16 15 17 17 15 14 13 12 13 17 21 20 19 20 21 20 19 18 18 19 19 18 17 17 17 16 16 15 15 16 15 15 16 16 16 17 17 17
5 3 1 2 5 3 4 3 2 2 2 2 3 5 2 3 2 2 2 1 2 4 2 2 2 3 4 4 5 6 8 12 15 15 15 15 15 15 16 17 17 19 18 18 19 20 19 18 16 16 19 21 22 23 23 22 21 21 21 19 17 18 19 18 15 14 14 15 17 21 22 22 22 22 22 22 21 20 21 20 19 18 18 17 17 17 17 17 17 17 17 16 17 18 18 19 19
2 4 4 2 3 2 4 3 3 0 2 1 3 5 4 1 2 3 2 2 0 3 3 2 2 3 4 4 5 6 7 11 13 15 15 16 16 16 16 16 17 18 19 18 17 18 19 19 18 16 18 20 21 23 24 23 22 23 23 22 22 21 21 20 17 15 16 18 20 21 22 22 21 21 22 22 23 23 23 23 21 20 19 18 19 19 19 19 19 20 20 18 19 20 20 21 21
1 3 4 4 4 3 2 2 3 2 1 0 2 4 2 1 2 3 0 2 2 3 4 3 3 3 4 4 4 5 6 7 10 15 18 18 19 19 19 17 17 18 19 18 16 18 19 19 19 18 18 19 19 21 23 23 24 24 24 24 24 23 25 24 21 19 19 20 22 23 22 21 19 19 19 20 21 23 24 24 24 22 21 20 20 21 20 21 21 22 21 20 21 20 20 22 23
3 1 2 2 3 3 2 3 2 2 2 3 2 4 6 1 1 2 2 1 4 5 6 4 3 4 4 3 4 5 6 6 9 12 15 17 21 22 21 20 19 19 20 21 19 18 18 19 20 20 20 19 18 19 21 22 23 24 25 25 24 23 26 28 26 24 23 23 24 25 24 22 19 18 18 18 19 19 20 22 24 24 24 22 22 23 23 23 22 23 23 23 24 23 22 22 23
8 5 4 2 2 3 2 2 1 2 2 4 3 5 11 8 6 7 3 2 3 7 6 5 5 6 5 4 5 5 5 7 8 7 8 12 15 18 19 20 22 23 24 24 23 20 18 18 19 20 21 20 19 18 19 20 21 23 24 24 24 24 25 27 27 27 26 25 25 26 25 24 22 21 22 22 21 18 18 21 21 22 25 26 26 27 26 25 25 26 25 25 27 27 25 24 24
10 7 5 5 4 3 1 2 2 1 3 5 6 7 10 10 8 9 3 3 3 7 6 5 5 6 5 4 5 5 6 8 5 3 6 8 9 11 13 15 19 23 25 25 25 24 22 19 19 20 20 20 20 19 19 19 20 22 23 23 23 24 26 26 26 26 26 25 24 24 25 25 24 24 24 24 24 21 21 23 21 21 24 27 30 30 28 28 27 28 28 29 29 28 27 27 26
9 7 3 4 3 2 1 2 3 1 3 4 4 6 10 10 10 11 4 2 4 8 7 7 6 6 4 4 5 6 7 7 5 6 7 8 9 9 10 11 13 16 19 22 23 25 25 22 21 21 19 18 20 21 20 18 19 20 22 23 23 22 23 25 25 25 26 27 26 26 27 27 26 25 25 23 23 24 25 25 25 24 24 25 28 31 30 29 29 29 29 31 31 29 29 28 28
8 6 5 3 1 2 2 1 3 1 2 2 1 5 10 11 11 11 5 2 6 7 7 7 7 6 4 4 6 7 6 6 6 7 6 6 8 9 10 12 13 14 16 18 21 23 24 24 24 22 18 18 20 21 20 20 20 19 19 21 21 20 20 22 24 25 26 27 27 26 26 27 27 28 28 27 27 29 31 30 29 27 23 20 23 30 31 31 33 32 30 30 30 30 29 28 28
5 4 5 3 2 3 2 1 2 1 2 1 1 4 9 9 10 9 5 4 5 4 6 7 7 7 5 5 5 6 6 6 5 5 4 4 5 6 8 11 14 15 15 17 19 20 21 24 25 23 20 18 18 20 21 19 19 18 17 17 16 16 18 20 22 23 24 24 24 25 25 26 28 28 29 30 29 30 32 33 31 29 26 21 24 30 32 32 34 34 33 31 28 27 27 28 29
3 3 5 3 2 2 2 3 2 1 1 1 1 4 8 7 6 4 1 3 4 4 5 6 5 6 7 6 5 5 7 6 5 4 3 3 3 2 5 8 12 14 15 17 18 19 20 22 23 22 21 19 16 18 20 19 17 18 18 18 16 16 18 20 20 21 22 22 22 23 24 25 26 26 27 28 28 27 28 29 29 30 30 29 30 33 34 34 33 34 34 33 29 25 25 28 30
0 2 4 3 5 3 1 4 4 1 1 1 2 5 5 3 3 2 2 2 2 2 2 2 2 4 5 4 3 3 5 5 5 3 3 3 3 2 1 5 8 10 12 15 17 17 18 19 19 20 21 19 17 16 17 18 18 19 19 20 20 20 21 21 21 22 22 22 23 22 22 23 23 23 23 24 25 25 26 29 30 31 34 35 35 35 35 34 33 33 34 33 31 27 24 26 28
2 3 2 2 7 6 4 6 5 3 3 1 2 5 3 1 2 3 1 1 1 1 1 2 2 1 1 1 1 1 1 2 3 3 3 2 2 2 2 2 4 6 8 11 14 15 16 16 16 17 18 18 18 15 13 14 17 19 19 19 18 18 19 19 19 20 20 21 23 23 23 24 24 25 24 24 25 26 27 29 30 32 33 34 34 33 34 35 34 34 34 34 34 30 26 25 25
3 2 2 3 7 9 8 7 4 2 2 1 1 4 2 0 2 3 1 1 3 2 2 4 3 3 3 2 2 2 2 1 0 1 2 2 2 3 4 5 5 4 4 7 9 12 13 13 13 13 13 14 15 12 11 12 13 15 16 17 16 15 16 16 16 16 16 17 18 20 22 22 24 26 27 26 27 28 29 29 29 30 31 31 32 32 33 34 35 35 35 36 36 33 30 30 29
3 1 3 7 8 8 8 6 2 0 1 1 0 2 3 3 1 2 0 2 4 3 3 4 4 4 4 4 4 3 3 2 1 2 3 3 4 4 5 6 8 7 6 5 6 7 8 9 9 9 8 9 9 8 9 10 11 12 13 14 15 16 17 16 14 14 15 15 16 18 19 18 20 23 24 25 26 27 28 29 28 28 29 30 31 33 34 32 33 35 35 37 37 35 33 34 34
1 0 3 5 6 6 4 3 2 2 1 3 1 3 4 4 1 2 1 3 4 2 3 4 4 5 5 5 5 5 4 3 3 3 4 4 5 6 7 9 11 11 11 10 9 8 8 8 8 7 7 6 6 7 9 10 11 11 11 13 14 15 15 14 14 16 17 17 17 17 17 16 17 19 21 21 22 23 25 27 28 28 28 28 29 31 33 33 32 33 34 35 37 38 36 35 35
3 5 6 6 5 5 3 2 3 2 3 4 2 2 4 4 2 2 1 2 5 4 3 3 3 4 5 5 6 5 5 4 3 4 5 6 6 7 10 12 13 14 14 14 13 12 12 11 11 10 9 8 7 7 8 9 10 10 10 11 11 11 11 11 12 14 15 17 19 18 17 17 19 20 21 21 21 21 21 23 25 27 28 29 30 30 31 33 34 34 34 34 35 37 38 37 37
8 7 7 8 5 3 3 2 2 1 4 2 2 3 3 3 2 2 2 2 4 6 5 4 4 5 5 5 5 5 5 4 4 5 7 8 8 9 12 13 14 15 15 15 15 15 14 14 12 11 10 9 8 8 8 7 8 8 8 8 9 9 9 9 11 12 12 14 17 18 16 17 18 19 21 23 24 23 23 23 23 23 25 26 28 28 28 29 29 30 31 32 33 35 37 36 36
4 4 6 7 3 1 2 2 0 4 3 1 3 3 3 4 2 1 0 1 1 5 8 8 7 7 5 5 4 4 4 4 5 5 6 8 9 10 12 13 15 16 17 17 17 16 16 14 13 11 10 9 7 6 5 5 5 6 7 7 8 8 9 9 10 11 11 11 13 13 13 14 15 16 18 21 22 22 23 24 22 21 21 22 24 25 27 28 27 27 28 29 31 32 35 35 35
1 5 8 6 3 2 3 2 2 4 1 2 2 2 3 6 4 1 1 3 3 4 7 9 9 8 6 5 4 3 3 4 4 5 5 6 7 8 9 11 15 17 18 18 17 17 17 16 14 13 12 10 9 7 6 4 3 3 4 6 7 7 8 9 9 10 10 10 11 11 12 12 13 13 14 15 16 16 18 20 20 20 20 20 21 22 24 25 25 27 29 30 30 30 32 33 35
5 7 7 5 4 4 5 3 1 3 0 2 2 1 2 4 4 4 5 5 4 3 4 3 5 6 5 4 3 3 4 3 4 4 5 6 7 8 9 11 15 18 19 19 19 18 18 17 16 15 14 11 10 9 7 5 4 3 2 3 5 6 7 8 9 10 10 10 10 11 11 12 13 13 13 13 13 12 14 15 17 19 20 20 20 20 21 22 22 24 27 29 29 30 30 30 33
3 1 1 3 3 3 4 2 1 1 2 2 1 1 3 2 1 1 1 3 1 1 1 1 0 1 1 1 1 2 4 3 3 4 5 7 7 8 9 11 16 19 20 21 21 19 19 18 17 16 14 12 11 9 8 6 4 3 1 1 2 4 5 6 7 8 8 9 9 10 11 11 12 13 13 14 14 13 13 14 15 17 19 19 19 20 20 21 21 22 24 26 28 29 29 31 33
1 1 1 2 1 2 2 1 1 1 1 2 3 3 3 1 0 1 1 1 0 0 0 1 2 2 2 3 3 3 4 3 3 4 6 7 7 8 9 10 15 19 21 21 21 20 20 19 18 17 15 13 12 10 9 7 6 4 3 1 1 2 3 3 4 5 6 7 8 9 11 11 12 13 14 15 16 15 15 16 16 16 17 17 18 18 19 19 19 21 22 24 26 27 28 29 31
2 2 3 2 1 4 4 1 2 1 3 2 3 3 2 2 3 2 2 2 2 2 3 4 5 5 5 5 5 4 4 4 3 4 5 6 7 8 9 10 14 19 21 21 21 21 21 20 19 18 17 15 14 13 11 10 8 7 6 5 4 3 2 2 2 2 3 4 5 7 8 10 10 12 13 15 15 15 15 16 17 18 17 17 18 18 19 19 19 20 22 23 24 25 26 28 29
2 3 5 3 1 1 2 1 2 0 3 1 2 4 3 3 3 3 4 6 5 5 7 7 7 7 7 6 5 5 4 4 4 5 5 6 7 8 10 12 15 18 20 21 21 22 21 21 20 19 19 18 17 16 15 14 12 11 10 9 8 7 6 5 5 4 4 4 4 5 6 8 9 10 11 12 13 14 15 15 16 17 18 18 18 18 18 19 19 20 22 23 25 25 26 28 29
1 1 3 3 2 2 2 2 2 2 3 2 2 2 3 5 4 4 8 11 9 9 9 9 10 10 9 8 7 6 5 4 4 5 4 5 6 7 9 11 14 18 19 20 21 21 21 21 21 21 20 19 18 18 18 17 16 15 14 13 12 11 10 9 9 8 8 8 8 8 9 9 9 9 10 11 12 12 13 14 15 16 17 17 18 18 17 18 18 20 23 25 26 25 26 29 29
2 2 2 0 1 2 2 2 1 3 3 2 1 1 3 6 5 7 12 14 13 12 11 11 13 12 10 8 8 7 6 5 5 4 4 5 7 7 9 11 14 17 19 20 21 21 21 21 21 21 21 20 19 19 19 18 18 17 16 15 14 14 13 13 12 12 12 12 12 12 11 12 11 11 11 11 12 12 12 13 14 15 16 17 18 18 18 18 20 22 24 26 26 25 26 28 29
3 4 5 3 1 1 1 1 1 1 3 2 2 2 3 2 3 6 8 9 11 13 12 11 12 12 10 8 8 7 6 6 5 5 5 6 7 8 9 13 16 18 19 20 20 20 21 21 21 21 21 21 21 20 20 19 19 18 18 17 17 16 16 15 15 15 15 15 15 14 14 14 13 13 13 12 12 12 12 13 14 15 15 16 17 17 17 17 19 22 23 24 26 26 27 29 29
2 3 5 5 4 3 3 4 1 1 1 1 1 3 3 1 1 2 1 3 7 11 13 12 10 11 10 7 7 7 6 6 5 5 5 6 7 8 9 12 15 17 18 19 20 20 20 20 20 20 21 21 20 20 20 19 19 18 18 18 17 17 16 16 16 16 17 17 17 16 16 16 16 15 15 15 14 14 13 14 14 15 15 16 16 17 17 18 19 22 23 24 25 25 26 28 28
Wind_Direction
9 0 355 357 12 329 313 345 242 99 274 147 103 180 142 120 9 191 167 151 165 132 116 98 142 138 120 336 31 68 32 15 7 347 71 65 131 146 149 144 145 144 145 146 147 147 142 139 133 131 122 111 116 121 127 126 123 123 120 116 114 112 112 108 104 101 108 115 106 101 97 94 93 90 90 93 95 96 95 93 90 89 90 90 88 86 87 87 88 91 92 93 93 91 90 93 97
1 354 346 354 16 341 200 318 275 136 229 147 143 196 113 145 203 197 168 152 80 90 122 135 142 119 353 345 69 123 72 38 22 37 69 110 138 146 149 146 149 148 146 146 146 144 145 145 140 136 124 119 120 124 128 125 123 119 115 115 115 114 115 106 99 100 107 110 104 100 97 94 90 88 91 94 97 97 95 93 91 92 94 92 91 92 91 89 90 92 93 94 92 88 88 91 95
351 350 345 335 22 10 143 247 268 172 220 126 141 129 129 181 195 179 122 93 71 102 132 127 150 139 293 197 155 304 85 74 75 93 100 133 144 154 154 151 152 150 151 150 148 146 149 153 145 138 131 127 122 125 127 125 122 116 114 117 118 116 116 111 101 101 102 102 102 101 96 93 89 86 90 97 101 100 97 95 94 94 96 95 95 93 90 89 90 91 92 93 91 88 88 91 94
350 352 5 301 307 159 220 261 303 258 205 98 128 140 173 195 177 121 83 88 96 123 137 144 163 91 307 287 66 335 99 98 116 114 131 149 147 151 155 156 154 152 159 156 152 152 155 157 146 143 138 131 124 123 127 127 125 123 122 121 122 120 119 113 103 104 106 101 98 96 95 92 86 83 91 101 104 101 99 96 95 96 98 99 96 92 91 93 94 93 95 94 93 93 93 95 97
22 37 64 238 254 102 338 72 230 265 75 39 75 139 186 192 147 114 101 118 112 88 110 166 171 85 310 16 358 299 104 105 144 147 145 151 142 146 156 159 156 158 163 159 157 158 160 158 148 144 140 132 127 123 124 126 130 133 130 125 127 126 119 105 101 106 109 107 101 95 96 90 78 83 99 105 105 102 99 96 96 97 99 102 99 95 94 95 97 97 98 97 95 96 97 99 100
87 66 66 86 110 54 214 187 202 231 44 339 358 104 178 175 141 124 122 129 111 23 71 193 282 123 173 88 333 1 76 116 139 156 153 153 149 150 156 158 161 163 163 162 161 163 163 159 151 146 143 134 128 123 120 122 130 135 134 128 129 129 122 109 107 106 103 104 105 98 96 92 81 89 104 106 106 103 99 98 98 98 99 101 100 97 96 95 94 95 96 95 95 98 101 103 104
159 104 58 85 112 291 243 227 265 158 60 347 355 55 142 153 144 134 140 148 149 153 114 180 343 245 151 100 194 72 17 144 130 156 157 153 152 153 157 157 161 164 166 166 164 166 167 163 156 151 147 139 131 124 119 123 131 136 137 129 126 128 125 118 115 112 105 100 100 99 96 96 91 97 107 107 107 104 101 103 101 98 101 102 100 99 97 94 92 93 95 95 95 101 103 105 108
131 112 303 248 130 316 263 229 316 15 66 331 315 12 82 145 162 152 153 159 157 153 131 129 210 260 122 108 194 98 134 164 141 153 153 153 153 157 158 158 161 165 168 168 168 169 171 169 161 156 152 145 137 127 120 124 132 138 138 130 127 129 126 120 117 116 112 105 100 100 101 103 100 103 109 110 109 105 103 104 101 100 103 103 100 98 96 93 92 94 96 96 95 101 107 110 110
60 32 225 228 176 178 224 215 121 29 100 253 264 291 34 164 186 169 156 143 102 143 101 120 165 284 124 150 108 107 168 174 155 151 154 155 154 159 158 161 164 165 168 167 170 170 172 173 166 161 159 152 143 133 122 125 130 138 140 133 130 131 129 122 120 118 113 111 106 101 102 107 109 108 109 112 111 108 108 103 102 102 103 103 101 100 99 97 94 93 96 95 96 102 111 114 114
44 16 196 163 210 211 199 174 136 144 148 303 312 161 163 172 197 179 159 141 107 136 90 100 160 269 158 154 107 113 159 154 152 151 156 156 155 160 160 164 166 167 169 168 170 170 174 175 170 165 163 158 147 138 128 127 125 131 136 134 133 134 130 121 121 120 115 113 112 108 104 113 115 110 106 112 113 110 112 108 105 107 108 105 104 106 103 96 93 94 97 97 99 104 112 118 121
140 58 351 194 204 210 181 143 133 129 104 319 251 150 164 178 185 159 154 136 123 102 117 139 203 200 182 164 123 101 125 154 156 155 159 158 157 159 161 166 168 170 171 169 170 171 175 176 174 170 168 163 153 145 135 131 126 127 129 132 136 138 134 129 124 120 121 117 117 112 109 119 117 112 106 113 118 111 116 115 106 108 111 106 104 107 102 98 100 102 101 101 103 108 119 125 126
194 112 227 215 202 241 115 133 127 110 110 163 147 143 164 190 183 158 166 142 135 216 164 182 211 162 175 164 135 115 143 169 162 160 160 158 159 160 162 166 169 173 174 171 170 173 174 174 177 176 174 172 162 152 146 138 132 132 133 136 141 144 144 142 133 124 128 124 120 114 112 122 118 115 107 116 124 116 123 124 112 110 108 108 107 106 103 104 107 108 105 104 109 116 126 129 131
189 143 215 206 40 4 149 139 123 120 143 155 136 131 163 192 190 159 161 143 148 196 175 175 153 253 210 121 114 141 180 181 167 163 162 160 159 160 161 166 170 173 176 174 173 177 175 174 178 180 179 179 172 161 158 151 141 138 139 139 141 148 151 151 143 133 137 134 131 130 125 131 127 118 104 117 129 123 125 128 121 117 110 111 114 117 118 118 115 109 106 107 111 122 130 132 134
154 155 238 158 92 187 173 122 144 187 147 128 120 132 174 209 186 136 154 175 185 155 60 85 175 252 229 141 162 180 185 177 170 163 162 162 158 160 160 164 170 173 179 179 178 179 178 178 179 183 184 183 183 173 166 162 154 146 142 141 140 148 154 158 155 145 147 150 147 151 148 144 138 129 115 121 134 132 129 134 140 134 127 128 134 143 139 131 124 109 105 109 116 125 131 135 138
142 144 39 131 148 177 189 28 138 200 143 133 136 145 178 234 329 158 160 198 155 73 80 129 229 268 267 184 167 168 170 166 169 163 159 160 157 161 161 164 170 174 181 182 184 183 183 184 184 189 188 187 187 178 173 172 167 158 150 148 147 147 152 159 162 158 156 157 160 169 172 160 145 140 135 128 139 144 140 144 157 150 143 145 144 148 141 126 120 106 103 106 112 120 127 136 142
125 154 145 144 170 187 181 172 146 195 138 130 122 158 176 154 251 204 51 315 115 101 168 159 171 305 328 328 23 110 155 160 166 161 157 158 156 161 165 168 171 177 184 185 189 188 189 189 189 192 192 195 190 181 178 180 179 167 159 157 157 154 151 153 158 164 162 160 165 172 181 169 150 139 144 137 143 157 160 160 175 170 157 160 139 128 130 119 110 106 106 102 100 101 111 130 145
227 197 186 163 178 197 172 170 174 145 120 131 144 186 183 143 194 285 51 271 136 132 179 147 143 273 326 5 17 103 148 159 164 160 158 158 157 162 168 173 174 182 188 188 191 191 194 194 192 193 195 198 193 189 181 185 191 177 169 168 168 168 159 155 157 163 167 169 168 170 180 167 153 143 149 150 145 165 177 176 185 190 186 189 154 130 133 128 122 119 110 101 93 87 96 114 132
231 197 194 182 161 171 167 164 168 75 130 157 169 194 197 150 156 172 171 177 136 152 176 172 173 198 206 1 38 140 152 163 166 164 163 165 165 167 172 178 180 185 188 190 193 193 195 197 196 194 196 196 193 193 186 190 195 181 179 180 177 182 174 166 165 169 175 180 180 177 177 173 165 158 163 164 147 164 187 192 193 201 206 203 176 144 139 147 151 143 116 103 100 96 97 103 112
208 154 205 186 144 115 140 145 142 62 118 147 161 191 211 155 145 168 200 168 158 192 185 192 212 190 177 204 158 155 163 169 171 172 172 174 176 175 177 181 185 187 189 190 192 194 194 197 198 196 197 197 194 195 192 194 192 183 186 187 183 186 185 183 181 181 185 189 192 187 183 188 182 176 187 177 157 164 190 201 201 206 207 200 192 168 160 172 174 157 125 120 122 115 113 118 118
166 209 203 139 126 92 79 142 129 38 91 146 154 167 201 123 120 170 207 169 185 212 196 190 218 208 179 156 156 167 174 176 179 181 181 184 184 184 184 185 189 190 192 192 192 194 196 196 198 199 200 199 196 196 198 196 193 188 190 193 188 187 190 193 194 192 195 196 195 194 196 203 195 196 215 191 168 164 185 205 212 217 214 207 204 186 182 190 181 156 157 195 188 165 156 150 147
148 222 212 92 125 114 104 210 48 358 299 157 143 151 175 132 133 185 188 184 209 224 220 216 222 201 169 152 159 175 183 185 187 188 188 190 190 193 194 193 194 194 195 194 194 195 196 198 198 200 202 202 199 197 200 198 195 194 195 197 193 192 195 198 201 202 202 202 200 203 207 211 204 206 217 199 183 175 183 201 212 212 201 206 203 186 194 199 184 185 207 219 216 211 201 198 188
138 66 19 64 246 111 90 22 80 200 303 153 146 155 154 128 163 189 201 218 224 140 202 232 247 146 150 154 162 176 189 193 194 195 194 193 194 195 196 197 197 198 199 197 197 198 199 201 200 200 202 204 203 200 202 201 200 200 200 201 199 199 198 201 206 209 210 208 206 210 213 214 212 213 217 208 199 196 194 197 206 213 216 225 216 205 216 211 201 209 222 228 227 230 226 228 221
170 126 85 89 9 67 76 34 132 178 175 158 153 141 128 151 181 138 221 236 61 68 54 5 308 59 138 148 160 178 191 197 199 201 199 198 197 196 196 196 197 198 201 201 201 201 202 202 202 203 204 206 206 204 204 205 204 205 208 206 204 203 203 205 208 212 216 214 213 213 216 218 216 217 220 219 215 211 210 208 212 220 228 236 230 225 229 219 213 218 225 232 235 239 239 240 241
225 133 134 125 34 47 37 42 134 180 177 137 122 131 144 187 180 88 238 238 104 89 30 351 307 135 143 152 167 183 192 198 202 204 206 207 205 202 199 199 200 199 201 203 202 204 204 204 204 204 206 209 209 206 207 208 207 208 214 214 209 209 208 209 210 214 217 218 219 216 217 221 220 221 224 225 225 220 223 225 223 228 232 236 236 234 235 225 222 225 228 235 238 241 245 244 245
220 133 140 138 73 71 62 116 124 119 126 83 186 165 135 192 104 201 239 232 84 21 8 4 155 144 160 169 176 184 193 201 203 205 210 215 215 212 209 207 206 205 206 205 203 207 206 203 204 205 208 210 210 209 209 210 209 209 213 216 214 214 214 214 215 214 216 219 222 221 219 222 223 225 229 230 231 230 232 235 235 237 239 241 243 240 240 235 231 232 234 237 239 242 245 245 247
135 123 134 131 104 84 91 108 94 95 94 140 193 145 79 91 23 257 228 48 2 330 21 55 174 167 175 179 184 188 194 201 201 203 207 213 216 216 215 213 212 212 211 209 208 210 208 205 205 206 208 210 210 210 213 214 213 211 213 217 217 216 217 217 219 218 217 219 224 226 224 225 227 229 233 235 237 238 240 243 243 243 245 247 248 248 247 242 239 239 239 241 245 246 246 249 250
110 117 109 104 109 95 95 111 83 97 89 342 220 141 86 109 259 248 122 39 344 277 121 342 215 191 183 180 186 192 198 201 199 200 203 209 214 216 216 215 215 216 214 214 214 213 212 210 209 210 210 210 210 210 215 217 216 215 213 217 219 218 217 217 220 222 222 221 225 229 229 230 231 232 236 239 240 242 245 246 246 247 250 252 251 252 253 249 246 246 244 244 248 248 249 255 252
119 127 107 87 107 98 60 106 86 306 103 1 281 147 102 120 228 229 88 22 340 234 177 122 242 222 195 184 185 193 201 200 197 201 204 206 209 211 214 214 215 216 215 216 216 216 217 215 213 213 213 212 212 212 215 217 219 220 216 217 219 220 219 218 222 224 225 225 227 229 230 233 234 236 238 240 241 243 247 248 249 250 251 255 255 255 257 255 252 252 251 248 249 250 252 257 255
126 143 118 111 142 104 41 67 47 316 109 8 306 208 213 193 218 175 76 334 340 243 205 176 228 240 220 200 195 200 202 196 197 208 211 209 207 208 213 213 213 214 217 218 217 218 218 218 218 216 216 216 216 216 218 219 221 223 221 220 221 222 221 220 223 225 227 228 231 230 229 231 233 237 241 242 243 244 248 249 251 254 254 258 260 260 260 259 256 255 254 253 252 254 254 258 259
133 166 120 133 176 137 40 19 333 293 107 342 264 246 227 187 223 64 55 314 288 237 197 185 218 218 224 212 211 212 204 200 205 213 213 210 209 209 214 213 211 213 215 215 216 217 215 216 218 218 218 218 219 220 220 221 223 225 225 223 222 224 225 225 225 226 228 228 231 232 232 234 233 236 241 244 245 245 248 250 252 255 257 261 262 262 261 258 258 256 256 254 254 256 255 257 259
130 143 182 149 194 163 70 32 316 202 130 334 242 247 261 162 175 76 26 316 251 257 221 199 222 222 229 214 221 224 212 213 217 220 216 213 213 213 216 214 212 212 214 215 214 214 213 214 214 217 219 218 220 222 223 223 224 227 228 228 226 225 227 228 228 228 230 234 239 238 237 238 236 235 239 242 246 246 248 251 253 255 258 261 262 260 259 257 257 256 256 253 254 257 255 256 258
109 165 173 169 215 165 87 55 353 143 118 0 244 246 266 257 102 93 14 4 170 273 271 258 240 233 238 228 231 230 223 222 225 229 226 221 220 219 219 215 213 214 216 217 215 214 215 217 216 218 220 219 220 223 225 226 226 228 231 235 236 234 232 230 229 227 230 238 247 250 249 249 247 245 244 244 247 249 250 252 254 256 258 260 259 258 257 255 255 253 253 252 252 256 255 255 257
210 229 167 162 201 181 132 102 23 5 119 209 252 268 280 40 72 112 194 340 2 308 281 272 251 241 241 236 238 239 237 226 225 232 230 228 228 228 226 221 219 218 221 221 218 218 219 220 221 222 223 221 223 225 227 227 228 230 231 235 239 242 241 238 237 236 238 241 247 254 258 261 259 257 257 256 254 254 254 255 256 255 256 259 261 262 262 260 261 258 255 255 252 250 252 253 254
176 264 139 149 196 185 179 145 58 353 236 209 197 262 261 222 157 220 205 276 311 290 277 275 270 265 247 238 246 243 242 235 232 229 223 228 234 236 235 232 229 226 229 229 224 223 222 223 225 226 225 223 225 227 229 230 231 232 233 235 238 242 245 245 245 247 249 250 251 255 260 265 266 264 265 265 262 261 262 260 257 256 255 256 258 260 261 259 261 259 255 255 253 248 248 251 253
174 178 165 148 195 222 221 148 82 349 219 218 198 238 256 255 258 263 224 152 273 274 275 278 271 268 259 256 259 250 248 246 240 227 223 232 238 242 241 239 238 236 236 236 231 227 224 224 226 229 228 225 226 227 230 233 233 235 235 236 238 240 245 246 245 248 251 252 251 252 255 261 261 257 256 256 254 255 265 265 258 257 255 252 253 253 255 255 255 256 252 250 253 251 247 249 253
168 167 160 150 164 209 240 91 47 345 199 217 221 235 261 265 266 271 249 146 258 270 268 265 258 259 255 249 257 259 258 255 255 259 257 256 251 249 246 242 242 241 241 239 236 232 228 223 224 230 230 226 226 228 229 231 232 233 234 235 237 238 243 245 245 246 247 247 247 248 253 257 256 254 252 253 251 250 262 264 255 256 256 252 251 250 253 256 255 256 253 249 252 252 250 251 253
148 144 136 144 162 154 100 86 61 1 228 215 229 256 270 271 273 274 259 143 258 266 262 260 253 251 250 251 261 262 260 268 297 300 283 278 272 261 251 244 239 238 238 235 233 234 231 225 223 227 228 225 225 225 226 226 226 229 231 232 235 237 241 244 246 247 248 250 253 253 254 254 254 256 254 253 255 254 256 255 247 249 252 252 252 252 254 256 256 256 254 253 253 253 253 253 251
136 150 154 157 202 121 78 80 75 25 250 182 111 272 267 265 269 269 254 209 251 259 261 265 265 263 262 262 266 269 272 281 295 295 289 285 280 263 248 242 236 232 230 229 229 231 229 226 225 224 224 226 226 225 227 228 227 226 228 232 236 240 241 243 245 248 249 251 253 251 250 250 249 251 249 247 250 252 249 247 246 246 246 253 258 255 254 254 254 254 252 252 252 251 250 250 249
129 142 158 168 170 126 102 112 79 32 262 192 114 269 271 265 265 269 270 262 260 269 268 272 280 279 278 275 277 284 287 291 295 296 297 294 292 269 245 238 235 232 228 230 230 228 227 228 228 224 221 224 228 227 226 229 230 229 232 235 238 241 242 244 246 250 252 250 252 251 250 251 250 250 252 251 250 251 250 247 248 245 243 259 268 259 253 251 252 251 250 248 246 245 245 247 249
122 132 157 160 148 154 165 156 134 47 2 328 283 271 277 267 259 259 285 279 276 287 264 262 269 268 278 286 289 288 286 293 300 306 315 319 327 298 245 233 233 232 229 231 230 226 226 228 229 226 224 223 226 229 227 227 231 233 236 237 238 243 245 247 248 251 252 252 254 255 253 251 249 249 251 251 250 254 257 255 254 251 250 261 266 255 247 246 249 250 247 244 240 239 241 245 250
89 190 167 141 164 190 21 120 137 130 146 348 312 266 260 252 244 183 133 260 266 295 246 214 241 249 271 283 281 273 275 288 296 317 342 344 348 354 256 224 221 225 229 231 231 229 229 231 231 232 231 227 224 227 227 226 227 232 236 236 238 243 248 250 250 252 253 253 254 255 256 256 255 256 254 253 253 256 258 255 254 252 250 255 257 254 249 249 253 251 245 243 241 240 241 244 249
180 222 198 162 169 154 103 128 149 182 190 80 340 260 222 125 238 186 98 330 120 38 49 82 47 357 294 304 5 342 275 276 277 308 337 351 3 43 78 129 180 201 220 224 224 224 226 230 232 233 232 231 229 226 224 223 223 229 231 231 233 237 244 248 247 251 256 257 257 256 256 257 257 258 258 259 261 262 261 258 256 253 251 253 255 255 252 249 251 250 247 245 243 245 245 241 243
172 202 146 140 147 134 136 155 172 198 187 82 338 263 235 242 217 154 22 0 122 97 68 60 35 31 28 30 29 18 35 33 247 12 18 40 50 74 77 78 105 136 191 207 209 209 213 217 220 224 225 230 232 224 217 218 219 225 228 230 234 237 243 248 249 252 254 255 258 260 258 257 257 257 257 258 260 262 263 263 263 261 259 260 259 255 252 252 255 254 252 247 244 247 245 239 241
160 158 133 139 136 136 148 156 169 26 59 144 58 324 279 260 194 121 316 163 127 109 83 59 36 40 34 37 35 25 26 15 29 64 62 64 58 65 69 69 83 94 111 137 161 175 187 195 198 204 210 220 223 212 206 209 213 220 223 228 234 236 240 247 251 251 252 253 257 261 262 261 261 261 259 259 259 260 260 260 262 262 260 259 257 254 254 257 258 255 252 248 245 246 244 241 242
105 142 129 126 115 118 133 131 115 61 275 210 116 18 265 245 183 132 231 176 154 136 92 61 38 39 38 49 45 37 38 23 19 44 52 54 48 56 69 75 82 90 99 107 118 128 137 150 155 159 168 182 188 188 196 201 206 212 216 222 228 234 240 246 251 252 255 260 263 267 270 267 266 268 266 264 262 259 259 260 261 261 260 260 259 258 259 259 257 253 249 246 244 244 245 246 244
138 153 111 91 80 80 80 89 110 105 247 220 104 13 261 247 210 168 200 217 188 160 104 66 56 51 46 54 51 46 54 47 42 47 49 49 47 60 75 79 81 87 94 101 107 112 117 123 127 134 142 151 162 173 187 197 204 208 214 223 229 238 247 253 259 261 263 266 269 270 270 269 269 270 270 270 268 264 262 261 261 261 261 262 262 262 262 260 257 253 247 245 247 248 248 248 246
142 154 111 94 75 63 66 44 78 191 239 208 57 350 286 260 241 182 207 251 181 151 132 112 98 88 73 64 56 51 56 58 60 64 65 64 62 68 75 78 79 85 92 98 103 107 111 116 121 127 135 143 153 166 182 195 206 213 221 229 237 246 255 261 265 269 271 273 274 273 271 272 274 273 273 274 273 271 269 266 263 262 261 261 261 261 261 261 258 253 248 247 249 249 249 248 247
146 162 129 112 84 84 120 70 130 225 224 88 32 333 272 239 242 83 0 294 168 145 137 133 122 103 87 75 63 52 51 57 66 69 72 73 70 69 71 75 81 87 92 95 99 104 107 109 112 115 116 120 126 138 158 177 197 215 228 238 246 251 256 262 266 270 274 275 278 278 276 276 277 278 277 276 275 275 273 270 267 265 264 264 263 261 261 262 262 260 258 257 256 254 252 249 248
215 157 151 147 129 160 195 178 204 232 234 47 9 329 252 245 258 272 179 160 158 136 122 126 125 116 109 93 73 60 51 52 66 69 68 69 67 66 68 73 80 84 88 93 96 99 102 103 105 105 101 102 105 108 116 127 155 195 225 240 250 256 259 263 266 271 274 275 279 281 282 281 281 282 280 277 277 276 275 274 272 271 269 268 267 265 263 262 260 261 262 264 263 261 258 252 249
185 162 165 168 146 172 197 174 232 262 179 55 349 320 240 254 266 238 193 153 144 123 94 96 110 112 109 92 69 68 69 61 66 70 66 64 62 63 66 70 79 84 87 92 94 96 98 99 100 99 97 98 101 104 110 116 130 159 198 231 247 258 265 271 273 275 277 279 280 279 280 280 279 281 281 280 279 277 277 276 277 277 275 273 271 268 267 265 262 260 259 260 260 260 259 257 255
182 157 154 171 160 189 195 176 215 213 102 100 150 234 220 203 46 287 156 99 77 63 47 349 0 86 80 90 106 100 92 82 71 72 69 65 64 66 68 72 81 87 90 92 94 96 97 98 98 97 95 96 97 99 103 106 113 125 157 231 259 271 278 284 288 292 294 292 289 287 285 283 283 283 283 284 284 282 281 279 277 277 277 276 274 271 270 268 266 263 260 258 258 258 258 258 259
165 7 74 195 182 121 117 72 95 103 83 145 181 242 258 244 303 319 6 47 278 163 119 198 174 160 163 143 132 118 104 96 82 81 78 71 69 71 73 77 83 88 90 92 94 96 97 97 96 96 94 93 94 94 94 95 96 92 87 78 13 320 307 307 310 312 310 307 304 300 298 296 295 295 294 295 295 292 289 287 282 279 278 277 274 273 272 270 269 267 264 262 260 260 259 258 259
148 165 179 186 60 100 114 112 60 0 253 182 171 239 258 245 231 184 143 174 170 153 177 177 155 150 156 146 137 132 117 104 87 80 82 77 75 74 73 77 84 88 90 91 93 96 97 97 96 95 95 94 94 94 94 93 92 91 87 83 77 67 48 26 15 353 332 323 315 308 307 308 306 305 303 301 301 299 296 293 289 285 282 279 277 275 273 271 271 269 266 265 264 263 264 263 261
141 173 168 138 78 77 118 156 101 180 247 189 170 233 232 203 205 130 143 179 179 174 177 163 151 159 162 156 150 141 125 116 101 89 87 82 79 78 77 79 85 90 91 93 95 96 97 98 97 96 95 94 94 95 96 95 94 93 89 85 81 76 69 59 54 47 37 28 -0 338 329 325 322 315 309 305 304 303 300 297 293 289 285 283 280 278 276 274 271 270 268 268 268 267 267 266 265
17 169 143 131 201 200 165 175 163 183 228 227 193 241 262 220 197 152 174 187 182 175 170 159 163 171 168 160 154 145 135 129 119 110 103 96 92 88 86 85 89 93 95 95 96 96 96 95 94 94 93 93 94 94 94 92 91 90 86 83 78 73 69 61 56 52 45 41 30 16 5 357 351 339 328 323 318 313 309 304 299 294 291 288 285 282 278 276 273 272 271 271 271 270 269 269 267
50 114 132 356 290 212 179 161 180 204 209 221 192 172 235 225 203 185 190 188 177 170 169 169 171 172 169 161 156 152 147 142 135 133 125 112 105 95 93 95 96 97 97 96 95 94 93 92 90 90 90 89 90 89 88 86 84 83 80 78 73 68 65 60 55 52 48 44 37 28 20 14 7 359 351 346 339 332 324 317 311 305 301 296 293 289 284 281 278 276 275 275 275 273 271 271 271
150 165 169 177 126 33 236 146 68 248 201 196 224 236 232 215 201 203 194 179 172 170 169 171 168 167 167 161 155 150 146 148 146 140 130 116 108 99 96 99 99 98 96 95 94 91 90 89 88 88 88 87 86 85 84 82 79 78 74 71 68 64 61 58 54 51 48 44 39 32 27 21 17 10 4 358 353 347 338 331 325 319 313 308 302 297 292 285 280 280 280 279 278 277 274 273 273
173 182 185 182 153 137 189 193 148 16 245 186 205 266 263 138 155 225 190 162 177 174 168 164 162 165 165 157 154 150 144 150 148 135 124 111 107 103 99 98 97 95 94 92 91 89 87 86 85 85 85 84 85 83 82 80 77 74 71 67 65 61 58 55 52 49 46 42 37 32 28 23 20 15 10 5 1 355 349 342 335 329 323 318 311 305 300 294 288 287 286 285 283 280 277 275 274
Height
818 819 818 818 817 817 818 820 832 835 835 845 847 847 847 846 847 846 846 847 846 846 846 846 846 846 849 848 846 845 847 848 849 853 857 856 855 857 857 858 860 861 863 864 864 865 866 866 866 867 868 868 868 869 869 869 870 870 870 870 870 871 871 871 870 870 870 870 870 870 870 870 871 871 871 871 871 871 870 870 870 871 870 870 870 870 870 870 870 870 870 870 870 869 869 869 869
818 819 818 818 816 819 823 823 837 842 840 849 847 844 846 846 848 844 842 845 845 846 847 846 846 848 849 847 844 845 848 850 852 852 854 856 857 858 858 859 861 862 863 864 864 865 866 867 867 868 868 868 869 869 870 870 870 870 870 871 871 872 872 872 872 872 871 871 871 871 871 871 872 872 872 872 872 872 872 872 872 872 872 872 871 872 871 872 872 871 872 871 871 871 871 870 870
818 819 818 818 818 819 824 826 838 846 846 850 845 844 847 846 844 840 841 844 846 848 848 848 849 849 849 847 846 847 850 852 853 852 854 857 857 858 860 861 862 863 863 864 865 866 867 868 868 869 869 869 869 870 870 870 870 870 871 872 872 872 873 873 873 873 872 872 872 872 872 872 873 873 873 873 873 873 873 873 873 873 873 873 873 873 873 873 873 873 873 873 873 872 872 872 872
818 818 818 818 820 822 827 833 839 843 846 847 844 844 845 842 840 840 844 847 848 848 848 849 850 850 850 849 849 849 850 852 853 853 856 857 857 858 860 861 862 864 864 864 866 867 868 868 869 869 869 870 870 870 871 871 871 871 871 872 873 873 874 874 873 874 873 873 873 873 873 874 874 874 874 874 874 874 874 874 874 875 875 875 874 874 874 874 874 874 874 874 873 873 873 873 873
818 818 818 817 823 828 832 840 841 841 843 842 841 842 842 839 839 843 847 849 850 849 849 849 849 850 851 851 850 849 850 853 854 854 855 857 858 859 860 862 863 864 864 865 866 867 868 868 869 870 870 870 871 871 871 871 871 871 872 873 873 874 874 874 874 874 874 874 874 874 874 874 875 875 875 875 876 876 876 876 876 876 876 876 876 875 875 875 875 875 875 875 875 874 874 874 874
819 819 818 818 825 829 834 843 842 840 840 839 838 840 839 839 841 844 848 849 850 850 850 850 850 850 850 851 851 850 850 852 853 854 855 857 858 860 861 862 863 864 865 866 867 868 868 869 870 870 871 871 872 872 872 872 872 873 873 873 874 874 875 875 875 875 875 875 875 875 875 875 876 876 876 877 877 877 877 877 877 877 877 877 877 877 877 877 877 877 877 876 876 876 875 875 875
819 820 820 822 828 830 836 842 840 838 841 842 840 840 839 840 842 844 848 849 850 850 850 851 850 849 850 852 852 851 851 851 853 854 856 857 858 860 862 863 864 865 866 867 867 868 869 870 870 871 872 872 873 873 873 873 873 874 874 874 875 875 876 876 876 877 876 876 876 876 877 877 877 877 878 878 878 878 878 878 878 878 878 878 878 878 878 878 878 878 878 877 877 877 877 876 876
818 822 824 827 834 836 840 842 840 839 843 846 843 842 842 842 843 843 846 847 848 849 850 851 851 851 851 851 851 851 852 852 853 854 856 857 859 860 862 863 864 865 866 867 868 869 869 870 871 872 873 873 873 873 874 874 874 875 875 876 876 877 877 877 877 878 878 877 877 877 878 878 878 878 879 879 879 879 879 879 879 880 880 880 880 880 879 879 879 879 879 879 879 878 878 878 878
818 822 826 830 837 841 842 843 843 843 844 845 843 844 845 845 844 842 845 847 848 849 849 850 851 851 850 851 852 851 852 853 853 855 856 857 859 861 862 864 865 866 866 867 868 869 870 871 872 873 873 874 874 874 875 875 875 875 876 877 877 878 878 878 878 878 878 878 878 878 878 879 879 879 880 880 880 880 880 880 881 881 881 881 881 881 881 881 880 880 880 880 880 879 879 879 879
820 823 828 832 838 843 844 843 844 844 844 843 842 844 845 846 845 842 844 847 848 848 850 850 852 852 850 851 852 851 852 853 854 855 856 857 859 861 863 864 865 866 867 868 869 870 871 872 872 873 874 875 875 875 876 876 876 876 877 877 878 878 879 879 879 879 879 879 879 879 879 880 880 880 881 881 881 881 881 881 882 882 882 882 882 882 882 881 881 881 881 881 881 880 880 880 880
824 826 829 836 841 843 842 841 843 843 843 842 842 844 845 846 845 844 844 846 848 849 850 851 851 851 851 852 851 851 852 853 854 854 856 857 859 861 863 864 866 866 867 868 869 870 871 872 873 874 875 875 876 876 876 877 877 877 878 878 878 879 879 879 880 880 880 880 880 880 880 880 881 881 881 882 882 882 882 882 882 882 883 883 883 883 883 882 882 882 882 882 882 882 881 881 881
827 831 830 837 841 841 841 841 842 843 842 842 842 843 846 846 844 844 845 846 848 849 849 850 849 848 852 853 850 851 853 854 854 855 856 857 859 861 863 865 866 867 868 869 870 871 872 873 874 874 875 876 877 877 877 877 877 878 878 879 879 879 879 880 880 880 880 881 881 881 881 881 881 882 882 882 883 883 883 883 883 883 884 884 884 884 883 883 883 883 883 882 882 882 882 882 882
826 832 830 838 845 844 844 843 844 845 841 840 840 844 846 845 842 841 843 845 847 848 847 847 848 848 851 851 850 852 853 854 855 855 856 857 859 860 863 864 866 867 868 869 870 871 872 873 874 875 876 876 877 878 878 878 878 879 879 879 879 879 880 880 880 881 881 881 881 881 882 882 882 882 883 883 883 884 884 884 884 884 884 884 885 884 884 884 884 884 883 883 883 883 883 883 883
824 830 829 842 853 847 845 844 843 843 839 838 840 844 847 844 842 839 841 845 846 846 848 847 847 849 850 850 851 851 851 854 855 855 856 857 858 860 862 864 866 867 868 869 870 872 873 874 875 875 876 877 878 878 879 879 879 879 879 880 880 880 880 881 881 881 881 881 882 882 882 883 883 883 883 884 884 884 884 884 884 884 885 885 885 885 884 884 884 884 884 884 884 884 884 884 884
823 829 830 841 850 846 846 846 843 840 836 838 842 845 846 845 844 841 840 843 844 845 847 849 848 850 848 847 849 848 849 853 855 855 856 857 859 860 862 864 865 867 868 869 870 872 872 874 875 875 876 877 878 879 879 879 879 880 880 880 880 881 881 881 881 881 881 882 882 882 883 883 883 884 884 884 885 884 884 884 885 885 885 885 885 885 885 885 885 885 885 885 885 885 885 885 885
822 826 832 838 845 845 844 846 846 841 836 838 844 846 844 845 845 843 841 841 844 846 847 848 849 850 848 847 848 848 850 854 855 856 857 857 859 861 862 863 865 867 868 869 870 871 872 873 874 875 876 877 878 879 879 880 880 880 880 881 881 881 881 881 881 882 882 882 883 883 883 884 884 884 884 884 885 885 885 885 885 885 886 886 886 886 886 886 886 886 886 886 886 886 886 886 886
822 825 832 837 842 842 840 842 842 837 835 840 847 846 842 844 845 844 844 842 842 845 846 847 848 849 848 849 850 850 852 854 855 856 857 858 859 860 862 863 865 866 867 869 870 871 872 873 874 875 876 877 877 879 879 880 880 880 881 881 881 881 881 882 882 882 882 883 883 883 884 884 884 884 885 885 885 885 885 885 886 886 886 886 886 887 887 887 887 886 886 886 886 887 887 887 887
824 828 834 836 837 836 834 835 835 832 833 838 843 843 840 842 844 844 844 843 843 845 845 846 847 848 848 850 851 851 853 854 856 856 857 857 858 859 861 862 864 865 866 868 869 870 871 872 873 874 875 876 877 878 879 880 880 880 881 881 881 882 882 882 882 882 883 883 883 883 884 884 885 885 885 885 885 886 886 886 886 886 887 887 887 887 887 887 887 887 887 887 887 887 888 888 888
827 831 834 834 833 832 831 831 832 833 832 835 840 842 840 839 841 843 844 844 844 844 844 845 845 846 847 850 851 852 853 854 855 856 856 857 857 858 860 861 863 864 865 866 867 869 870 871 872 873 874 875 876 877 878 879 880 881 881 882 882 882 882 882 882 883 883 883 883 883 884 884 884 885 885 885 886 886 886 886 886 887 887 887 887 887 887 887 887 887 887 888 888 888 889 889 889
828 831 831 831 830 831 834 834 834 836 834 835 839 843 842 840 841 843 843 844 845 843 841 843 844 843 844 848 851 853 854 855 855 855 856 856 857 858 859 860 861 862 864 865 866 867 868 870 871 872 873 874 876 877 878 879 879 880 881 881 882 882 882 882 882 883 883 883 883 883 884 884 884 885 885 885 886 886 886 886 887 887 887 887 887 887 887 887 887 887 888 888 889 889 889 889 889
828 830 830 832 832 832 836 837 838 840 838 836 838 842 842 841 842 842 842 844 843 839 836 837 838 838 841 846 849 852 853 854 855 854 855 856 857 858 858 860 861 862 863 864 865 866 867 868 870 871 872 873 874 876 877 878 879 879 880 881 881 882 882 882 882 882 883 883 883 883 884 884 884 885 885 885 886 887 887 887 887 887 887 887 887 888 888 887 888 888 888 889 889 889 889 889 889
828 833 834 835 835 833 837 841 842 843 841 838 839 840 839 840 842 841 841 841 838 835 834 835 835 836 839 844 848 851 853 853 854 853 853 854 855 856 858 859 861 862 863 864 864 865 866 867 869 870 871 872 873 875 876 876 878 878 879 880 881 881 881 881 882 882 882 882 883 883 883 884 884 885 885 885 886 886 887 887 887 887 887 887 887 888 888 888 888 888 889 889 889 889 889 889 889
827 834 837 838 838 836 840 843 844 845 840 839 839 837 838 840 841 842 842 837 835 835 837 837 837 838 839 842 846 849 850 851 851 852 852 852 853 854 855 857 859 860 861 862 863 864 865 866 868 869 870 871 872 874 875 875 876 877 878 879 880 880 881 881 881 881 882 882 882 883 883 884 884 884 885 885 885 886 886 886 886 886 886 886 887 887 887 887 888 888 888 888 888 888 888 888 888
825 831 836 839 841 839 843 845 845 845 840 840 841 839 840 840 840 845 842 835 835 838 839 840 839 839 840 841 844 846 847 848 849 851 852 853 853 853 854 856 857 858 859 860 862 863 864 865 866 868 869 870 871 872 874 874 875 876 877 877 878 879 879 880 881 881 881 881 882 882 883 883 884 884 884 884 885 885 885 885 886 886 886 886 886 887 887 887 887 887 887 888 888 888 888 888 888
825 830 836 839 841 841 845 846 845 845 842 844 842 840 842 842 844 845 839 834 836 838 839 841 840 840 840 841 842 844 845 847 848 850 852 853 854 855 855 855 856 856 857 858 860 861 862 863 865 866 868 869 870 871 872 873 874 875 876 876 877 877 878 879 880 880 880 880 881 881 882 882 883 883 883 884 884 884 884 884 885 885 885 885 885 886 886 886 886 887 887 887 887 887 887 887 887
826 831 835 838 840 841 844 843 844 844 843 844 841 841 844 846 847 841 835 836 838 839 840 841 840 840 840 840 841 842 844 845 847 848 850 852 853 854 854 854 855 855 856 857 858 859 860 861 863 864 866 867 868 870 871 871 872 873 874 875 875 876 876 877 878 878 879 879 879 880 881 881 882 882 882 883 883 883 883 884 884 884 884 884 885 885 885 886 886 886 886 886 887 887 887 887 887
827 833 835 837 840 842 842 841 844 844 843 844 840 841 844 846 847 837 834 839 839 838 839 841 840 838 839 839 840 841 843 843 845 847 848 850 851 851 852 853 853 853 855 856 857 858 859 860 861 863 864 865 867 867 868 869 870 871 872 872 873 873 874 875 876 876 877 877 878 878 879 880 881 881 881 881 882 882 882 883 883 883 883 884 884 884 884 885 885 885 885 886 886 886 886 886 886
828 831 834 840 840 840 842 840 843 842 842 845 841 842 845 847 845 835 835 840 840 838 838 841 841 839 838 838 839 840 841 842 844 845 845 846 847 848 849 850 851 852 853 854 856 857 858 859 860 862 863 864 865 865 866 867 868 868 869 870 871 871 872 873 874 874 874 875 876 876 877 878 879 879 880 880 881 881 881 881 882 882 883 883 883 883 884 884 884 884 884 885 885 885 885 885 885
830 829 832 840 838 838 843 841 843 842 841 846 843 842 842 842 839 833 837 840 839 838 836 838 840 840 840 838 839 839 840 841 842 842 841 842 844 845 846 847 849 850 851 852 854 855 856 858 859 860 862 862 863 864 865 865 866 867 867 868 868 869 870 871 871 872 872 873 873 874 875 876 877 878 878 879 879 880 880 880 881 881 881 882 882 882 883 883 883 883 883 884 884 884 884 884 884
831 831 832 838 837 839 843 844 844 841 843 846 844 843 836 833 834 833 839 840 838 836 834 836 837 838 839 838 838 838 838 839 839 839 839 840 841 842 843 845 847 848 849 851 852 853 854 856 857 859 860 860 861 862 863 863 864 865 865 866 867 867 868 869 869 870 870 871 871 872 873 874 875 876 877 877 878 878 879 879 879 880 880 881 881 881 882 882 882 882 882 882 882 883 883 882 882
831 834 835 839 840 840 843 847 844 839 843 843 842 844 834 829 833 836 840 839 837 834 832 833 834 836 836 836 837 836 836 836 836 837 837 838 839 839 841 842 845 846 847 848 849 851 853 854 855 856 857 858 859 860 861 861 862 863 863 864 865 865 866 866 867 868 868 868 869 870 871 872 873 874 875 876 876 877 877 877 878 879 879 879 879 880 880 880 880 880 880 880 881 881 881 881 881
834 836 841 846 842 839 843 849 848 842 843 841 841 843 833 828 832 837 841 838 836 833 831 832 833 834 834 834 834 833 833 833 834 835 835 836 836 837 838 840 842 844 845 847 848 850 851 853 853 854 855 856 857 857 858 859 860 861 861 862 862 863 864 864 865 866 866 867 867 868 869 870 871 872 873 874 875 875 875 876 876 877 877 878 878 878 878 878 879 878 879 879 879 878 878 878 878
838 835 839 847 843 839 841 847 851 849 845 841 842 841 832 830 833 836 840 838 836 834 831 831 831 833 833 832 833 831 831 831 831 831 832 833 834 834 835 837 839 841 843 845 847 849 850 851 852 853 853 854 855 855 856 857 858 858 859 860 860 861 861 862 863 864 865 865 865 866 867 868 869 870 871 872 873 873 874 874 874 875 875 876 876 876 876 877 877 877 877 877 877 877 877 876 876
843 840 841 849 848 842 840 844 850 851 846 842 843 843 833 830 832 832 835 837 837 834 830 829 829 830 830 831 831 830 829 829 827 827 828 830 831 832 833 835 837 838 840 842 844 846 848 849 850 850 851 852 853 853 854 854 855 857 857 859 859 859 860 860 861 862 863 864 864 864 865 866 868 869 869 870 871 871 871 872 872 873 873 874 874 874 874 874 875 875 875 875 875 875 875 875 874
838 841 840 847 851 847 842 842 849 851 846 844 845 845 835 829 829 828 830 835 835 832 829 829 829 828 828 829 829 828 827 826 824 824 826 828 829 831 832 833 834 835 837 838 840 843 845 847 848 848 849 850 851 851 852 853 854 855 855 857 858 858 858 858 859 860 860 861 862 862 863 864 865 866 867 867 868 868 869 869 869 870 871 871 871 871 871 872 872 872 873 872 872 872 873 873 873
828 833 832 837 842 845 846 846 852 854 847 845 844 842 835 830 829 827 827 832 834 830 829 829 828 827 826 827 827 826 826 823 822 824 825 826 827 828 829 830 831 832 833 835 837 839 841 843 845 845 846 847 849 849 850 851 852 853 853 855 855 856 856 857 858 858 859 859 860 861 861 861 862 863 864 864 865 866 866 866 867 867 868 868 868 869 869 869 869 869 870 870 869 870 870 871 870
825 831 833 837 837 840 849 851 855 856 846 842 844 843 839 834 830 826 826 831 833 829 827 827 825 824 824 825 825 825 824 822 822 823 824 824 825 826 826 827 828 829 830 831 833 835 837 839 841 842 843 845 846 847 847 848 849 850 851 852 852 853 854 856 856 857 857 857 858 859 858 859 859 860 861 862 862 863 863 862 863 864 864 864 865 865 866 866 867 867 867 867 867 867 868 868 868
827 831 834 840 841 843 851 853 854 857 847 842 849 848 839 833 828 823 825 829 830 826 825 824 822 823 823 823 824 823 822 822 822 822 823 823 823 823 824 824 825 826 827 828 829 831 833 835 837 838 841 842 843 844 845 846 847 848 849 849 850 852 853 853 854 854 855 855 856 856 856 856 857 857 858 858 859 859 860 859 860 861 861 862 862 862 863 864 863 864 865 865 864 864 864 865 865
829 833 834 838 842 845 853 855 855 856 848 841 849 849 834 826 825 822 825 828 827 827 828 827 825 824 823 822 822 822 822 821 821 821 822 822 822 821 822 822 822 823 824 825 826 828 830 831 833 835 837 839 840 842 843 844 845 846 847 849 849 850 850 851 851 852 853 853 854 854 854 855 855 855 855 856 857 857 857 858 858 859 859 859 859 859 859 860 860 860 861 861 861 861 861 862 862
832 833 833 838 844 844 844 851 856 858 854 848 850 847 831 822 823 825 830 833 831 831 832 830 830 828 824 823 824 824 822 821 820 820 820 821 820 820 820 820 820 821 822 823 824 825 827 828 830 832 834 836 838 839 840 842 844 845 846 847 848 848 848 849 850 850 851 851 852 852 852 853 853 853 853 853 853 854 855 856 856 856 856 856 856 856 855 856 856 857 857 858 859 859 858 858 858
838 836 832 837 843 843 844 849 855 857 858 856 852 843 830 824 826 824 829 834 832 830 830 828 828 828 826 825 824 824 823 821 820 820 819 820 819 819 819 818 819 819 820 821 822 824 825 826 828 830 832 834 836 837 838 840 842 843 844 845 846 847 847 847 848 849 849 850 850 850 851 852 852 852 852 852 852 852 852 852 853 853 853 853 852 852 852 853 853 853 854 855 856 856 856 855 855
838 836 833 835 835 841 849 851 850 848 849 856 856 842 830 827 826 823 827 830 828 827 827 825 825 825 825 824 823 822 822 822 821 820 819 819 819 818 818 818 818 818 819 820 821 822 824 825 827 828 830 832 834 836 837 839 840 842 843 844 845 846 846 846 847 847 848 848 847 848 849 849 850 850 850 851 850 850 850 850 850 850 850 849 849 849 849 849 850 850 850 851 851 852 853 853 852
834 836 839 838 835 840 848 848 844 842 845 857 861 847 834 827 820 824 832 829 826 826 824 824 824 824 824 823 823 822 821 821 820 820 819 819 818 818 818 817 818 818 818 819 819 821 822 824 825 827 829 830 832 834 836 838 839 841 842 843 844 845 845 845 845 846 845 845 845 846 846 846 847 847 847 848 848 848 848 847 847 847 847 847 847 847 846 846 847 847 847 847 847 847 848 848 848
832 841 844 839 836 840 845 843 842 846 849 855 858 850 843 835 824 827 835 829 825 825 823 824 825 824 824 824 824 823 822 821 821 819 819 819 819 818 818 818 817 817 818 818 819 820 822 823 824 826 828 830 831 833 835 837 838 840 841 842 843 843 843 843 843 844 843 844 844 844 844 844 844 844 845 845 845 845 845 845 845 845 844 844 843 843 842 843 843 843 844 844 844 844 843 842 842
838 851 848 841 840 842 843 842 844 853 853 847 851 854 848 837 826 828 833 828 825 825 824 825 826 826 826 825 824 824 823 823 821 820 820 820 819 819 819 818 818 818 818 819 820 820 822 823 824 826 827 829 830 831 833 834 836 837 839 839 840 840 841 841 841 842 842 842 842 842 843 842 842 842 842 842 843 843 843 843 842 842 842 841 841 840 839 840 839 839 840 840 840 840 839 838 839
844 854 847 844 846 846 846 845 845 853 852 846 856 864 852 834 823 826 830 826 823 824 826 827 827 828 827 826 826 824 824 823 822 822 821 821 821 820 819 819 819 819 819 819 820 821 822 823 824 825 827 828 829 830 831 833 834 835 837 838 838 839 839 840 840 840 840 840 840 840 840 840 840 840 839 839 840 840 840 840 839 839 839 839 838 837 837 836 836 836 835 835 836 836 836 836 835
844 845 838 841 845 844 847 848 847 852 852 854 869 875 863 842 823 820 825 823 819 820 826 828 827 828 828 827 827 826 825 824 823 823 822 822 822 821 820 820 820 820 820 821 821 822 823 823 824 825 826 827 828 829 831 832 833 834 836 837 837 838 839 839 839 839 839 838 838 838 838 838 837 837 837 836 837 837 837 837 836 836 836 836 835 835 834 834 833 833 833 833 832 832 832 832 831
843 835 832 841 847 847 849 851 853 854 853 861 876 880 872 850 826 819 822 822 820 819 823 827 827 828 829 828 828 827 826 825 824 824 823 823 823 822 822 822 822 822 822 822 823 823 824 824 825 826 827 828 828 830 831 831 833 834 835 835 836 837 837 837 837 837 837 837 837 836 836 836 835 835 834 834 834 834 834 834 833 833 833 832 832 832 832 831 831 831 831 830 830 829 829 828 828
839 832 832 842 852 857 855 856 860 857 857 870 878 878 869 845 822 818 821 822 822 820 820 823 825 827 828 829 829 829 828 827 826 825 825 825 824 824 824 824 824 824 823 824 824 824 825 825 826 827 827 828 829 830 831 831 832 833 833 834 834 835 835 835 835 835 835 835 835 835 835 834 834 833 833 832 832 832 831 831 831 830 830 830 829 829 829 829 829 829 828 828 827 826 825 825 824
834 829 830 838 853 863 864 868 872 863 862 874 880 874 860 837 820 816 817 818 822 823 824 825 826 827 828 830 831 830 830 829 828 828 827 826 826 826 825 825 825 825 824 825 825 825 826 826 827 827 828 829 829 830 830 831 831 832 832 832 833 833 833 833 833 833 834 834 834 833 833 833 832 832 831 831 830 830 829 829 828 828 827 827 827 826 826 826 826 826 825 825 824 823 822 822 820
835 831 829 833 840 847 854 859 858 857 864 875 880 868 843 827 823 820 820 822 826 829 831 831 830 830 831 831 832 831 831 831 829 829 828 828 828 827 827 827 826 826 826 826 826 827 827 827 828 828 829 829 830 830 830 831 831 831 832 832 832 832 832 832 832 832 832 832 832 832 831 831 831 830 830 829 829 828 827 827 826 825 825 825 824 824 824 823 823 823 822 822 821 820 820 819 817
841 838 834 834 830 833 856 870 864 864 866 865 869 856 830 821 822 823 826 827 828 831 833 832 830 831 832 831 831 831 831 832 831 830 830 830 830 829 829 829 828 828 828 827 828 828 828 829 829 829 829 830 830 831 831 831 831 832 832 832 832 832 832 832 832 832 831 831 831 830 830 829 829 828 828 827 826 826 825 825 824 823 823 822 822 822 821 821 821 820 820 819 818 817 816 815 815
838 839 836 837 834 834 856 877 880 875 858 848 854 844 826 822 818 819 825 824 826 830 830 830 829 830 831 831 831 832 832 833 832 831 831 831 831 831 830 830 830 829 829 829 829 829 829 829 830 830 830 831 831 831 832 832 832 832 832 832 832 832 832 832 831 831 830 830 829 829 828 828 827 827 826 825 824 824 823 822 822 821 821 820 820 819 819 819 818 818 817 816 815 814 814 812 812
834 835 832 835 840 836 837 853 868 870 854 845 851 844 830 825 820 821 824 821 823 827 827 829 830 830 830 830 831 832 833 834 834 833 833 832 832 832 831 831 831 830 830 830 830 830 830 830 830 831 831 831 832 832 832 833 833 833 833 833 832 832 832 832 831 831 830 829 829 828 828 827 826 825 824 823 822 822 821 820 819 819 818 818 817 817 816 816 816 815 813 812 811 811 810 809 808
832 831 829 830 835 836 836 844 853 857 854 847 850 854 844 827 817 818 821 818 818 823 826 828 828 828 828 829 831 832 834 834 834 834 834 834 834 833 833 832 832 832 831 831 832 832 831 832 832 832 832 832 833 833 833 833 833 833 833 833 833 833 832 832 831 831 829 828 828 827 827 826 825 824 823 822 821 820 820 819 818 817 816 815 815 814 814 813 812 811 810 808 807 807 806 804 804
836 833 832 832 831 831 833 838 836 838 847 847 847 851 839 818 809 808 808 809 810 818 824 824 823 825 825 827 830 831 833 834 834 835 835 834 835 834 833 833 833 833 833 832 833 833 833 833 833 832 833 833 833 833 833 833 833 833 833 833 833 832 832 832 831 830 829 828 827 826 826 825 824 823 822 821 820 819 818 817 816 815 814 813 813 812 811 810 809 807 806 805 804 804 802 800 800
832 831 832 834 835 836 834 836 837 834 839 845 847 840 820 806 806 802 799 803 805 812 818 818 820 822 823 826 828 830 833 834 834 835 834 835 835 834 834 833 833 833 833 833 833 833 833 833 833 833 833 833 833 833 833 833 833 833 833 833 832 832 832 832 831 830 829 827 826 826 825 824 823 822 821 820 819 818 817 816 815 814 813 812 810 810 809 808 806 804 803 802 801 800 799 797 796
824 823 824 823 828 834 832 837 847 844 840 843 846 835 811 802 810 809 804 806 806 808 812 815 819 821 823 826 828 830 832 833 834 834 834 835 834 834 834 834 834 834 833 834 833 833 833 833 833 833 833 833 832 833 833 833 833 833 833 833 833 833 832 832 831 830 828 827 826 825 824 824 823 821 820 819 818 817 816 814 813 812 811 810 809 808 807 805 803 801 800 799 797 796 795 793 792